Terug naar catalogus

COSMOS 2251 DEB

ActiefLEO
NORAD 34570·DEBRIS·🇷🇺 Russia

Gelanceerd Jun 16, 1993 vanaf Plesetsk Cosmodrome

Loading…

Volgende Passages (komende 24 uur)

TLE

VersSource: Space-Track

Epoch: Sep 14, 2026, 13:24 UTC

1 34570U 93036VG  26257.55859558  .00000431  00000-0  26411-3 0  9997
2 34570  73.9560  98.3675 0190732 282.6402 105.7056 14.00324796894613

Volg COSMOS 2251 DEB in realtime met AllMySat

Download on the App Store